����������;��������(kWh)
2015-11-23 00:00;67,95
2015-11-23 00:15;67,4
2015-11-23 00:30;68,8
2015-11-23 00:45;67,2
2015-11-23 01:00;66,8
2015-11-23 01:15;70,65
2015-11-23 01:30;72,95
2015-11-23 01:45;74,35
2015-11-23 02:00;74,15
2015-11-23 02:15;68,65
2015-11-23 02:30;66,5
2015-11-23 02:45;65,45
2015-11-23 03:00;65,95
2015-11-23 03:15;66,05
2015-11-23 03:30;65,5
2015-11-23 03:45;66,45
2015-11-23 04:00;64,85
2015-11-23 04:15;64,6
2015-11-23 04:30;64,3
2015-11-23 04:45;63,65
2015-11-23 05:00;64
2015-11-23 05:15;65,15
2015-11-23 05:30;64,85
2015-11-23 05:45;64,4
2015-11-23 06:00;68,65
2015-11-23 06:15;67,4
2015-11-23 06:30;69,6
2015-11-23 06:45;74,9
2015-11-23 07:00;73
2015-11-23 07:15;72,95
2015-11-23 07:30;74,75
2015-11-23 07:45;77,4
2015-11-23 08:00;79,35
2015-11-23 08:15;87,6
2015-11-23 08:30;91,7
2015-11-23 08:45;91,95
2015-11-23 09:00;98,55
2015-11-23 09:15;103,75
2015-11-23 09:30;106,1
2015-11-23 09:45;113,6
2015-11-23 10:00;114,6
2015-11-23 10:15;122,2
2015-11-23 10:30;123,6
2015-11-23 10:45;129,85
2015-11-23 11:00;129,55
2015-11-23 11:15;125,9
2015-11-23 11:30;129,55
2015-11-23 11:45;133,35
2015-11-23 12:00;136,35
2015-11-23 12:15;131,9
2015-11-23 12:30;134,1
2015-11-23 12:45;132,35
2015-11-23 13:00;139,85
2015-11-23 13:15;138,55
2015-11-23 13:30;138,85
2015-11-23 13:45;140,4
2015-11-23 14:00;139,1
2015-11-23 14:15;139,95
2015-11-23 14:30;138
2015-11-23 14:45;136,65
2015-11-23 15:00;137,75
2015-11-23 15:15;136,45
2015-11-23 15:30;136,75
2015-11-23 15:45;131,55
2015-11-23 16:00;128,6
2015-11-23 16:15;114,25
2015-11-23 16:30;116,2
2015-11-23 16:45;116,8
2015-11-23 17:00;113,95
2015-11-23 17:15;115,15
2015-11-23 17:30;115
2015-11-23 17:45;123,9
2015-11-23 18:00;117,1
2015-11-23 18:15;119,2
2015-11-23 18:30;121,1
2015-11-23 18:45;122,65
2015-11-23 19:00;123,2
2015-11-23 19:15;117,8
2015-11-23 19:30;109,7
2015-11-23 19:45;105
2015-11-23 20:00;107,85
2015-11-23 20:15;103,15
2015-11-23 20:30;95,2
2015-11-23 20:45;100,35
2015-11-23 21:00;108,6
2015-11-23 21:15;101,65
2015-11-23 21:30;100,15
2015-11-23 21:45;97,45
2015-11-23 22:00;92,35
2015-11-23 22:15;91,35
2015-11-23 22:30;89,9
2015-11-23 22:45;88,3
2015-11-23 23:00;85,55
2015-11-23 23:15;89,9
2015-11-23 23:30;91,7
2015-11-23 23:45;87,2
2015-11-24 00:00;89,05
2015-11-24 00:15;90,1
2015-11-24 00:30;84,2
2015-11-24 00:45;83,05
2015-11-24 01:00;83,2
2015-11-24 01:15;81
2015-11-24 01:30;80,55
2015-11-24 01:45;81,55
2015-11-24 02:00;82,15
2015-11-24 02:15;80,8
2015-11-24 02:30;81,6
2015-11-24 02:45;80,2
2015-11-24 03:00;79,8
2015-11-24 03:15;79,6
2015-11-24 03:30;81,85
2015-11-24 03:45;83,15
2015-11-24 04:00;79,8
2015-11-24 04:15;82,85
2015-11-24 04:30;87,6
2015-11-24 04:45;85,95
2015-11-24 05:00;85,9
2015-11-24 05:15;87,1
2015-11-24 05:30;78,7
2015-11-24 05:45;77,4
2015-11-24 06:00;80,55
2015-11-24 06:15;80,8
2015-11-24 06:30;85,25
2015-11-24 06:45;85,95
2015-11-24 07:00;87,85
2015-11-24 07:15;85,05
2015-11-24 07:30;85,4
2015-11-24 07:45;91,1
2015-11-24 08:00;96,8
2015-11-24 08:15;99
2015-11-24 08:30;103,25
2015-11-24 08:45;111,25
2015-11-24 09:00;112,3
2015-11-24 09:15;116,35
2015-11-24 09:30;118,95
2015-11-24 09:45;122,8
2015-11-24 10:00;127,85
2015-11-24 10:15;131,95
2015-11-24 10:30;134,95
2015-11-24 10:45;143,85
2015-11-24 11:00;144,3
2015-11-24 11:15;148,75
2015-11-24 11:30;139,5
2015-11-24 11:45;136,4
2015-11-24 12:00;137,8
2015-11-24 12:15;135,95
2015-11-24 12:30;135,55
2015-11-24 12:45;141,05
2015-11-24 13:00;141,5
2015-11-24 13:15;139
2015-11-24 13:30;139,1
2015-11-24 13:45;138,8
2015-11-24 14:00;137,3
2015-11-24 14:15;132,95
2015-11-24 14:30;134,85
2015-11-24 14:45;136,1
2015-11-24 15:00;135,1
2015-11-24 15:15;131,4
2015-11-24 15:30;126,25
2015-11-24 15:45;131,35
2015-11-24 16:00;132,9
2015-11-24 16:15;126,4
2015-11-24 16:30;123,8
2015-11-24 16:45;125,35
2015-11-24 17:00;123,6
2015-11-24 17:15;115,6
2015-11-24 17:30;118,2
2015-11-24 17:45;124,35
2015-11-24 18:00;117,5
2015-11-24 18:15;115,25
2015-11-24 18:30;113,85
2015-11-24 18:45;117,5
2015-11-24 19:00;115,05
2015-11-24 19:15;114,05
2015-11-24 19:30;113,55
2015-11-24 19:45;111,2
2015-11-24 20:00;109,5
2015-11-24 20:15;106
2015-11-24 20:30;103,85
2015-11-24 20:45;98,8
2015-11-24 21:00;93
2015-11-24 21:15;90
2015-11-24 21:30;93,5
2015-11-24 21:45;93,1
2015-11-24 22:00;87,7
2015-11-24 22:15;84,85
2015-11-24 22:30;84,55
2015-11-24 22:45;78
2015-11-24 23:00;77,75
2015-11-24 23:15;76
2015-11-24 23:30;74,45
2015-11-24 23:45;73,85
2015-11-25 00:00;73,15
2015-11-25 00:15;76
2015-11-25 00:30;74,45
2015-11-25 00:45;74,65
2015-11-25 01:00;72,9
2015-11-25 01:15;72,45
2015-11-25 01:30;71,55
2015-11-25 01:45;71,8
2015-11-25 02:00;72,3
2015-11-25 02:15;72,35
2015-11-25 02:30;70,65
2015-11-25 02:45;70,95
2015-11-25 03:00;70,6
2015-11-25 03:15;70,2
2015-11-25 03:30;70,85
2015-11-25 03:45;70,9
2015-11-25 04:00;71,25
2015-11-25 04:15;71,05
2015-11-25 04:30;71,3
2015-11-25 04:45;70,2
2015-11-25 05:00;69,95
2015-11-25 05:15;69,9
2015-11-25 05:30;70,4
2015-11-25 05:45;74,5
2015-11-25 06:00;78,65
2015-11-25 06:15;78,5
2015-11-25 06:30;82,9
2015-11-25 06:45;82,65
2015-11-25 07:00;78,25
2015-11-25 07:15;79,45
2015-11-25 07:30;79,85
2015-11-25 07:45;80,05
2015-11-25 08:00;85,55
2015-11-25 08:15;93,3
2015-11-25 08:30;100,2
2015-11-25 08:45;101,95
2015-11-25 09:00;107,1
2015-11-25 09:15;110,55
2015-11-25 09:30;115,8
2015-11-25 09:45;117,2
2015-11-25 10:00;120,2
2015-11-25 10:15;124,6
2015-11-25 10:30;132,35
2015-11-25 10:45;129,7
2015-11-25 11:00;127,75
2015-11-25 11:15;131,7
2015-11-25 11:30;133,6
2015-11-25 11:45;132,85
2015-11-25 12:00;135,9
2015-11-25 12:15;139,8
2015-11-25 12:30;141,8
2015-11-25 12:45;148,85
2015-11-25 13:00;154,2
2015-11-25 13:15;158
2015-11-25 13:30;159,75
2015-11-25 13:45;150,05
2015-11-25 14:00;147,4
2015-11-25 14:15;142,9
2015-11-25 14:30;139
2015-11-25 14:45;137,55
2015-11-25 15:00;136,4
2015-11-25 15:15;133,85
2015-11-25 15:30;127,5
2015-11-25 15:45;123,5
2015-11-25 16:00;127,4
2015-11-25 16:15;120,55
2015-11-25 16:30;119,05
2015-11-25 16:45;118,8
2015-11-25 17:00;113,2
2015-11-25 17:15;112,45
2015-11-25 17:30;117,35
2015-11-25 17:45;125,55
2015-11-25 18:00;123,25
2015-11-25 18:15;118,1
2015-11-25 18:30;116,25
2015-11-25 18:45;117,65
2015-11-25 19:00;113,6
2015-11-25 19:15;115,35
2015-11-25 19:30;114,25
2015-11-25 19:45;108,85
2015-11-25 20:00;107,55
2015-11-25 20:15;105,05
2015-11-25 20:30;104,4
2015-11-25 20:45;107,5
2015-11-25 21:00;104,5
2015-11-25 21:15;103,15
2015-11-25 21:30;102
2015-11-25 21:45;93,55
2015-11-25 22:00;88,55
2015-11-25 22:15;85,15
2015-11-25 22:30;80,65
2015-11-25 22:45;79,4
2015-11-25 23:00;79
2015-11-25 23:15;76,55
2015-11-25 23:30;77,35
2015-11-25 23:45;77,3
2015-11-26 00:00;75,85
2015-11-26 00:15;75,9
2015-11-26 00:30;75,05
2015-11-26 00:45;75,2
2015-11-26 01:00;74,8
2015-11-26 01:15;74
2015-11-26 01:30;73
2015-11-26 01:45;74,65
2015-11-26 02:00;74,75
2015-11-26 02:15;71,6
2015-11-26 02:30;73,4
2015-11-26 02:45;77,5
2015-11-26 03:00;78,8
2015-11-26 03:15;78,5
2015-11-26 03:30;78,9
2015-11-26 03:45;80,05
2015-11-26 04:00;72,3
2015-11-26 04:15;71,15
2015-11-26 04:30;72,7
2015-11-26 04:45;71,25
2015-11-26 05:00;72,35
2015-11-26 05:15;72
2015-11-26 05:30;72,15
2015-11-26 05:45;73,6
2015-11-26 06:00;74,15
2015-11-26 06:15;73,5
2015-11-26 06:30;74,7
2015-11-26 06:45;79,45
2015-11-26 07:00;78,3
2015-11-26 07:15;78,2
2015-11-26 07:30;76,85
2015-11-26 07:45;82,9
2015-11-26 08:00;84,9
2015-11-26 08:15;90,9
2015-11-26 08:30;96,3
2015-11-26 08:45;96,9
2015-11-26 09:00;103,9
2015-11-26 09:15;108,9
2015-11-26 09:30;113,3
2015-11-26 09:45;111,95
2015-11-26 10:00;114,05
2015-11-26 10:15;116,95
2015-11-26 10:30;121,05
2015-11-26 10:45;121
2015-11-26 11:00;120,55
2015-11-26 11:15;142,65
2015-11-26 11:30;147,15
2015-11-26 11:45;141,2
2015-11-26 12:00;147,1
2015-11-26 12:15;148,65
2015-11-26 12:30;150,2
2015-11-26 12:45;159,5
2015-11-26 13:00;156,95
2015-11-26 13:15;153,1
2015-11-26 13:30;157,6
2015-11-26 13:45;161,55
2015-11-26 14:00;158,3
2015-11-26 14:15;156,8
2015-11-26 14:30;150,3
2015-11-26 14:45;151,5
2015-11-26 15:00;151,9
2015-11-26 15:15;148,25
2015-11-26 15:30;143,45
2015-11-26 15:45;140
2015-11-26 16:00;140,5
2015-11-26 16:15;135,5
2015-11-26 16:30;135,7
2015-11-26 16:45;130
2015-11-26 17:00;133,45
2015-11-26 17:15;127,3
2015-11-26 17:30;124,75
2015-11-26 17:45;112
2015-11-26 18:00;97,75
2015-11-26 18:15;129,65
2015-11-26 18:30;125,05
2015-11-26 18:45;124,45
2015-11-26 19:00;123,95
2015-11-26 19:15;117,6
2015-11-26 19:30;107,4
2015-11-26 19:45;106,55
2015-11-26 20:00;100
2015-11-26 20:15;105,2
2015-11-26 20:30;105
2015-11-26 20:45;98,6
2015-11-26 21:00;96,8
2015-11-26 21:15;91,95
2015-11-26 21:30;90,75
2015-11-26 21:45;92,9
2015-11-26 22:00;86
2015-11-26 22:15;82,55
2015-11-26 22:30;80,85
2015-11-26 22:45;79,7
2015-11-26 23:00;80,05
2015-11-26 23:15;78,95
2015-11-26 23:30;81,8
2015-11-26 23:45;81,75
2015-11-27 00:00;82,55
2015-11-27 00:15;84,35
2015-11-27 00:30;80,3
2015-11-27 00:45;75,6
2015-11-27 01:00;75,35
2015-11-27 01:15;72,9
2015-11-27 01:30;75,2
2015-11-27 01:45;73,95
2015-11-27 02:00;73,95
2015-11-27 02:15;73,45
2015-11-27 02:30;72,3
2015-11-27 02:45;70,95
2015-11-27 03:00;71,4
2015-11-27 03:15;71,7
2015-11-27 03:30;71,3
2015-11-27 03:45;73,05
2015-11-27 04:00;74,55
2015-11-27 04:15;71,9
2015-11-27 04:30;70,95
2015-11-27 04:45;73,35
2015-11-27 05:00;73,05
2015-11-27 05:15;69,6
2015-11-27 05:30;73,05
2015-11-27 05:45;69,1
2015-11-27 06:00;70,05
2015-11-27 06:15;72
2015-11-27 06:30;78,8
2015-11-27 06:45;76,45
2015-11-27 07:00;76,4
2015-11-27 07:15;94,1
2015-11-27 07:30;89,8
2015-11-27 07:45;91,8
2015-11-27 08:00;92,2
2015-11-27 08:15;96,4
2015-11-27 08:30;102,65
2015-11-27 08:45;106,7
2015-11-27 09:00;115,15
2015-11-27 09:15;121,85
2015-11-27 09:30;125,7
2015-11-27 09:45;125,2
2015-11-27 10:00;125,3
2015-11-27 10:15;131,5
2015-11-27 10:30;134,7
2015-11-27 10:45;145,5
2015-11-27 11:00;150,95
2015-11-27 11:15;147,75
2015-11-27 11:30;149,7
2015-11-27 11:45;143,6
2015-11-27 12:00;137,3
2015-11-27 12:15;137,45
2015-11-27 12:30;146,3
2015-11-27 12:45;141,6
2015-11-27 13:00;140,05
2015-11-27 13:15;139,65
2015-11-27 13:30;142,6
2015-11-27 13:45;142,95
2015-11-27 14:00;143,85
2015-11-27 14:15;148,6
2015-11-27 14:30;144,95
2015-11-27 14:45;134,2
2015-11-27 15:00;132,55
2015-11-27 15:15;125,45
2015-11-27 15:30;126,7
2015-11-27 15:45;125,85
2015-11-27 16:00;123,55
2015-11-27 16:15;118,7
2015-11-27 16:30;120,85
2015-11-27 16:45;116,9
2015-11-27 17:00;120,35
2015-11-27 17:15;121,55
2015-11-27 17:30;129,6
2015-11-27 17:45;131,5
2015-11-27 18:00;118,2
2015-11-27 18:15;113,9
2015-11-27 18:30;108,9
2015-11-27 18:45;106,7
2015-11-27 19:00;108,2
2015-11-27 19:15;108,5
2015-11-27 19:30;102,75
2015-11-27 19:45;104,85
2015-11-27 20:00;102,7
2015-11-27 20:15;97,45
2015-11-27 20:30;94,25
2015-11-27 20:45;90,55
2015-11-27 21:00;91,4
2015-11-27 21:15;85,8
2015-11-27 21:30;89,65
2015-11-27 21:45;90,1
2015-11-27 22:00;92,95
2015-11-27 22:15;88,75
2015-11-27 22:30;79,95
2015-11-27 22:45;79,95
2015-11-27 23:00;72,4
2015-11-27 23:15;70,6
2015-11-27 23:30;70,4
2015-11-27 23:45;71,55
2015-11-28 00:00;69,9
2015-11-28 00:15;71,8
2015-11-28 00:30;74,2
2015-11-28 00:45;72,45
2015-11-28 01:00;70,9
2015-11-28 01:15;70,6
2015-11-28 01:30;70,75
2015-11-28 01:45;67,45
2015-11-28 02:00;68,7
2015-11-28 02:15;71,15
2015-11-28 02:30;71,15
2015-11-28 02:45;69,4
2015-11-28 03:00;71,15
2015-11-28 03:15;71,8
2015-11-28 03:30;69,4
2015-11-28 03:45;69,35
2015-11-28 04:00;74,9
2015-11-28 04:15;74,25
2015-11-28 04:30;73,8
2015-11-28 04:45;76,5
2015-11-28 05:00;77,9
2015-11-28 05:15;71,95
2015-11-28 05:30;73,7
2015-11-28 05:45;71,55
2015-11-28 06:00;71,85
2015-11-28 06:15;75,4
2015-11-28 06:30;76,4
2015-11-28 06:45;78,1
2015-11-28 07:00;73,1
2015-11-28 07:15;74,75
2015-11-28 07:30;75,95
2015-11-28 07:45;71,5
2015-11-28 08:00;72,6
2015-11-28 08:15;72,45
2015-11-28 08:30;71,6
2015-11-28 08:45;65,75
2015-11-28 09:00;65,05
2015-11-28 09:15;68,75
2015-11-28 09:30;67,75
2015-11-28 09:45;67,1
2015-11-28 10:00;69,25
2015-11-28 10:15;76,35
2015-11-28 10:30;75,95
2015-11-28 10:45;83,1
2015-11-28 11:00;81,85
2015-11-28 11:15;79,85
2015-11-28 11:30;77,9
2015-11-28 11:45;74,95
2015-11-28 12:00;76,1
2015-11-28 12:15;76,8
2015-11-28 12:30;75,3
2015-11-28 12:45;78,45
2015-11-28 13:00;80,65
2015-11-28 13:15;71,8
2015-11-28 13:30;69,65
2015-11-28 13:45;71,1
2015-11-28 14:00;71,7
2015-11-28 14:15;73,9
2015-11-28 14:30;73,2
2015-11-28 14:45;75,8
2015-11-28 15:00;76,6
2015-11-28 15:15;79,45
2015-11-28 15:30;74,95
2015-11-28 15:45;75,85
2015-11-28 16:00;81,05
2015-11-28 16:15;85,35
2015-11-28 16:30;84,7
2015-11-28 16:45;86,4
2015-11-28 17:00;92
2015-11-28 17:15;87,7
2015-11-28 17:30;85,8
2015-11-28 17:45;95,75
2015-11-28 18:00;91,6
2015-11-28 18:15;90,35
2015-11-28 18:30;90,35
2015-11-28 18:45;91,8
2015-11-28 19:00;92,3
2015-11-28 19:15;95,8
2015-11-28 19:30;95,1
2015-11-28 19:45;91,65
2015-11-28 20:00;90,2
2015-11-28 20:15;94,25
2015-11-28 20:30;90,9
2015-11-28 20:45;86,5
2015-11-28 21:00;87,9
2015-11-28 21:15;90,6
2015-11-28 21:30;80,15
2015-11-28 21:45;78,45
2015-11-28 22:00;77,55
2015-11-28 22:15;75,15
2015-11-28 22:30;74,05
2015-11-28 22:45;75,95
2015-11-28 23:00;73,6
2015-11-28 23:15;71,75
2015-11-28 23:30;72,15
2015-11-28 23:45;70
2015-11-29 00:00;68,85
2015-11-29 00:15;70,1
2015-11-29 00:30;71,6
2015-11-29 00:45;69,6
2015-11-29 01:00;68,55
2015-11-29 01:15;70,4
2015-11-29 01:30;69,6
2015-11-29 01:45;67,75
2015-11-29 02:00;74,45
2015-11-29 02:15;75,4
2015-11-29 02:30;73,45
2015-11-29 02:45;73,25
2015-11-29 03:00;74,45
2015-11-29 03:15;68,9
2015-11-29 03:30;66,55
2015-11-29 03:45;66,4
2015-11-29 04:00;72,9
2015-11-29 04:15;71,2
2015-11-29 04:30;71
2015-11-29 04:45;74
2015-11-29 05:00;73,45
2015-11-29 05:15;69,95
2015-11-29 05:30;72,35
2015-11-29 05:45;70,15
2015-11-29 06:00;69,5
2015-11-29 06:15;73,1
2015-11-29 06:30;75,8
2015-11-29 06:45;79,8
2015-11-29 07:00;76,15
2015-11-29 07:15;75,5
2015-11-29 07:30;76,05
2015-11-29 07:45;74,9
2015-11-29 08:00;74,1
2015-11-29 08:15;76,5
2015-11-29 08:30;73,9
2015-11-29 08:45;67,5
2015-11-29 09:00;64,5
2015-11-29 09:15;69,4
2015-11-29 09:30;68,55
2015-11-29 09:45;66,7
2015-11-29 10:00;63,3
2015-11-29 10:15;66,7
2015-11-29 10:30;66,05
2015-11-29 10:45;69,15
2015-11-29 11:00;70,8
2015-11-29 11:15;62,55
2015-11-29 11:30;67,75
2015-11-29 11:45;63,95
2015-11-29 12:00;62,7
2015-11-29 12:15;69,45
2015-11-29 12:30;71,7
2015-11-29 12:45;72,05
2015-11-29 13:00;71,2
2015-11-29 13:15;73
2015-11-29 13:30;76,3
2015-11-29 13:45;77,7
2015-11-29 14:00;79,2
2015-11-29 14:15;76,4
2015-11-29 14:30;73,65
2015-11-29 14:45;72,65
2015-11-29 15:00;73,1
2015-11-29 15:15;71,85
2015-11-29 15:30;71,1
2015-11-29 15:45;74,4
2015-11-29 16:00;71,75
2015-11-29 16:15;71,3
2015-11-29 16:30;69,75
2015-11-29 16:45;69,25
2015-11-29 17:00;70,4
2015-11-29 17:15;70,2
2015-11-29 17:30;78,8
2015-11-29 17:45;78,7
2015-11-29 18:00;78,3
2015-11-29 18:15;80
2015-11-29 18:30;81
2015-11-29 18:45;86,6
2015-11-29 19:00;88,25
2015-11-29 19:15;90,1
2015-11-29 19:30;87,5
2015-11-29 19:45;87,3
2015-11-29 20:00;86,35
2015-11-29 20:15;80
2015-11-29 20:30;78,9
2015-11-29 20:45;78,05
2015-11-29 21:00;79,75
2015-11-29 21:15;77,9
2015-11-29 21:30;78,3
2015-11-29 21:45;79,75
2015-11-29 22:00;72,85
2015-11-29 22:15;71,6
2015-11-29 22:30;73,7
2015-11-29 22:45;72,2
2015-11-29 23:00;71,9
2015-11-29 23:15;70,1
2015-11-29 23:30;72
2015-11-29 23:45;70,15

